data, server_name, run_num, io_op, speed, speed_unit, file_size, chunk_size_kb,num_operations, user_dir, device, instance_type
3/2/13 5:28,server-6204,1,copy,26.6,MB/s,4294967296,4096,1048576,/root,/dev/vda,m1.small
3/2/13 5:33,server-6204,2,copy,27.2,MB/s,4294967296,4096,1048576,/root,/dev/vda,m1.small
3/2/13 5:38,server-6204,3,copy,27.3,MB/s,4294967296,4096,1048576,/root,/dev/vda,m1.small
3/2/13 5:43,server-6204,4,copy,23.9,MB/s,4294967296,4096,1048576,/root,/dev/vda,m1.small
3/2/13 5:49,server-6204,5,copy,27.6,MB/s,4294967296,4096,1048576,/root,/dev/vda,m1.small
3/2/13 5:54,server-6204,1,copy,28.1,MB/s,4294967296,2048,2097152,/root,/dev/vda,m1.small
3/2/13 5:59,server-6204,2,copy,27.5,MB/s,4294967296,2048,2097152,/root,/dev/vda,m1.small
3/2/13 6:04,server-6204,3,copy,28.1,MB/s,4294967296,2048,2097152,/root,/dev/vda,m1.small
3/2/13 6:09,server-6204,4,copy,27.5,MB/s,4294967296,2048,2097152,/root,/dev/vda,m1.small
3/2/13 6:15,server-6204,5,copy,28.2,MB/s,4294967296,2048,2097152,/root,/dev/vda,m1.small
3/2/13 6:20,server-6204,1,copy,28,MB/s,4294967296,1024,4194304,/root,/dev/vda,m1.small
3/2/13 6:25,server-6204,2,copy,23.6,MB/s,4294967296,1024,4194304,/root,/dev/vda,m1.small
3/2/13 6:31,server-6204,3,copy,27.5,MB/s,4294967296,1024,4194304,/root,/dev/vda,m1.small
3/2/13 6:36,server-6204,4,copy,27,MB/s,4294967296,1024,4194304,/root,/dev/vda,m1.small
3/2/13 6:42,server-6204,5,copy,27.4,MB/s,4294967296,1024,4194304,/root,/dev/vda,m1.small
3/2/13 6:47,server-6204,1,copy,27,MB/s,4294967296,512,8388608,/root,/dev/vda,m1.small
3/2/13 6:52,server-6204,2,copy,27.4,MB/s,4294967296,512,8388608,/root,/dev/vda,m1.small
3/2/13 6:57,server-6204,3,copy,26.9,MB/s,4294967296,512,8388608,/root,/dev/vda,m1.small
3/2/13 7:03,server-6204,4,copy,27.3,MB/s,4294967296,512,8388608,/root,/dev/vda,m1.small
3/2/13 7:08,server-6204,5,copy,27.3,MB/s,4294967296,512,8388608,/root,/dev/vda,m1.small
3/2/13 7:13,server-6204,1,copy,27.4,MB/s,4294967296,256,16777216,/root,/dev/vda,m1.small
3/2/13 7:18,server-6204,2,copy,27.3,MB/s,4294967296,256,16777216,/root,/dev/vda,m1.small
3/2/13 7:23,server-6204,3,copy,27,MB/s,4294967296,256,16777216,/root,/dev/vda,m1.small
3/2/13 7:29,server-6204,4,copy,27.2,MB/s,4294967296,256,16777216,/root,/dev/vda,m1.small
3/2/13 7:34,server-6204,5,copy,27.2,MB/s,4294967296,256,16777216,/root,/dev/vda,m1.small
3/2/13 5:41,server-6204,3,read,94.2,MB/s,4294967296,4096,1048576,/root,/dev/vda,m1.small
3/2/13 5:46,server-6204,4,read,101,MB/s,4294967296,4096,1048576,/root,/dev/vda,m1.small
3/2/13 5:52,server-6204,5,read,96.9,MB/s,4294967296,4096,1048576,/root,/dev/vda,m1.small
3/2/13 5:57,server-6204,1,read,93.1,MB/s,4294967296,2048,2097152,/root,/dev/vda,m1.small
3/2/13 6:02,server-6204,2,read,95.5,MB/s,4294967296,2048,2097152,/root,/dev/vda,m1.small
3/2/13 6:07,server-6204,3,read,89,MB/s,4294967296,2048,2097152,/root,/dev/vda,m1.small
3/2/13 6:12,server-6204,4,read,90,MB/s,4294967296,2048,2097152,/root,/dev/vda,m1.small
3/2/13 6:17,server-6204,5,read,82.8,MB/s,4294967296,2048,2097152,/root,/dev/vda,m1.small
3/2/13 6:23,server-6204,1,read,83.3,MB/s,4294967296,1024,4194304,/root,/dev/vda,m1.small
3/2/13 6:28,server-6204,2,read,80.3,MB/s,4294967296,1024,4194304,/root,/dev/vda,m1.small
3/2/13 6:34,server-6204,3,read,84.4,MB/s,4294967296,1024,4194304,/root,/dev/vda,m1.small
3/2/13 6:39,server-6204,4,read,88.9,MB/s,4294967296,1024,4194304,/root,/dev/vda,m1.small
3/2/13 6:44,server-6204,5,read,90.5,MB/s,4294967296,1024,4194304,/root,/dev/vda,m1.small
3/2/13 6:49,server-6204,1,read,84.7,MB/s,4294967296,512,8388608,/root,/dev/vda,m1.small
3/2/13 6:55,server-6204,2,read,90,MB/s,4294967296,512,8388608,/root,/dev/vda,m1.small
3/2/13 7:00,server-6204,3,read,90,MB/s,4294967296,512,8388608,/root,/dev/vda,m1.small
3/2/13 7:05,server-6204,4,read,94.1,MB/s,4294967296,512,8388608,/root,/dev/vda,m1.small
3/2/13 7:10,server-6204,5,read,94.9,MB/s,4294967296,512,8388608,/root,/dev/vda,m1.small
3/2/13 7:16,server-6204,1,read,93.7,MB/s,4294967296,256,16777216,/root,/dev/vda,m1.small
3/2/13 7:21,server-6204,2,read,89,MB/s,4294967296,256,16777216,/root,/dev/vda,m1.small
3/2/13 7:26,server-6204,3,read,88,MB/s,4294967296,256,16777216,/root,/dev/vda,m1.small
3/2/13 7:31,server-6204,4,read,94.6,MB/s,4294967296,256,16777216,/root,/dev/vda,m1.small
3/2/13 7:36,server-6204,5,read,90.4,MB/s,4294967296,256,16777216,/root,/dev/vda,m1.small
3/2/13 5:30,server-6204,1,read,86.5,MB/s,4294967296,4096,1048576,/root,/dev/vda,m1.small
3/2/13 5:36,server-6204,2,read,87.3,MB/s,4294967296,4096,1048576,/root,/dev/vda,m1.small
3/2/13 5:26,server-6204,1,write,42.3,MB/s,4294967296,4096,1048576,/root,/dev/vda,m1.small
3/2/13 5:31,server-6204,2,write,40.2,MB/s,4294967296,4096,1048576,/root,/dev/vda,m1.small
3/2/13 5:37,server-6204,3,write,41.1,MB/s,4294967296,4096,1048576,/root,/dev/vda,m1.small
3/2/13 5:42,server-6204,4,write,41.3,MB/s,4294967296,4096,1048576,/root,/dev/vda,m1.small
3/2/13 5:47,server-6204,5,write,41.2,MB/s,4294967296,4096,1048576,/root,/dev/vda,m1.small
3/2/13 5:52,server-6204,1,write,41.3,MB/s,4294967296,2048,2097152,/root,/dev/vda,m1.small
3/2/13 5:57,server-6204,2,write,40.7,MB/s,4294967296,2048,2097152,/root,/dev/vda,m1.small
3/2/13 6:03,server-6204,3,write,40.7,MB/s,4294967296,2048,2097152,/root,/dev/vda,m1.small
3/2/13 6:08,server-6204,4,write,39.9,MB/s,4294967296,2048,2097152,/root,/dev/vda,m1.small
3/2/13 6:13,server-6204,5,write,39.3,MB/s,4294967296,2048,2097152,/root,/dev/vda,m1.small
3/2/13 6:18,server-6204,1,write,39.1,MB/s,4294967296,1024,4194304,/root,/dev/vda,m1.small
3/2/13 6:23,server-6204,2,write,38.6,MB/s,4294967296,1024,4194304,/root,/dev/vda,m1.small
3/2/13 6:29,server-6204,3,write,40,MB/s,4294967296,1024,4194304,/root,/dev/vda,m1.small
3/2/13 6:35,server-6204,4,write,39.6,MB/s,4294967296,1024,4194304,/root,/dev/vda,m1.small
3/2/13 6:40,server-6204,5,write,39.9,MB/s,4294967296,1024,4194304,/root,/dev/vda,m1.small
3/2/13 6:45,server-6204,1,write,39.6,MB/s,4294967296,512,8388608,/root,/dev/vda,m1.small
3/2/13 6:50,server-6204,2,write,40,MB/s,4294967296,512,8388608,/root,/dev/vda,m1.small
3/2/13 6:56,server-6204,3,write,40.6,MB/s,4294967296,512,8388608,/root,/dev/vda,m1.small
3/2/13 7:01,server-6204,4,write,41.1,MB/s,4294967296,512,8388608,/root,/dev/vda,m1.small
3/2/13 7:06,server-6204,5,write,41.5,MB/s,4294967296,512,8388608,/root,/dev/vda,m1.small
3/2/13 7:11,server-6204,1,write,41.7,MB/s,4294967296,256,16777216,/root,/dev/vda,m1.small
3/2/13 7:16,server-6204,2,write,40.3,MB/s,4294967296,256,16777216,/root,/dev/vda,m1.small
3/2/13 7:22,server-6204,3,write,40.4,MB/s,4294967296,256,16777216,/root,/dev/vda,m1.small
3/2/13 7:27,server-6204,4,write,40.8,MB/s,4294967296,256,16777216,/root,/dev/vda,m1.small
3/2/13 7:32,server-6204,5,write,40.4,MB/s,4294967296,256,16777216,/root,/dev/vda,m1.small
3/2/13 7:41,server-6204,1,copy,26,MB/s,4294967296,4096,1048576,/mnt,/dev/vdb,m1.small
3/2/13 7:46,server-6204,2,copy,25,MB/s,4294967296,4096,1048576,/mnt,/dev/vdb,m1.small
3/2/13 7:52,server-6204,3,copy,26.5,MB/s,4294967296,4096,1048576,/mnt,/dev/vdb,m1.small
3/2/13 7:57,server-6204,4,copy,25.8,MB/s,4294967296,4096,1048576,/mnt,/dev/vdb,m1.small
3/2/13 8:03,server-6204,5,copy,25.7,MB/s,4294967296,4096,1048576,/mnt,/dev/vdb,m1.small
3/2/13 8:08,server-6204,1,copy,26.1,MB/s,4294967296,2048,2097152,/mnt,/dev/vdb,m1.small
3/2/13 8:14,server-6204,2,copy,25.7,MB/s,4294967296,2048,2097152,/mnt,/dev/vdb,m1.small
3/2/13 8:20,server-6204,3,copy,26.2,MB/s,4294967296,2048,2097152,/mnt,/dev/vdb,m1.small
3/2/13 8:25,server-6204,4,copy,25.2,MB/s,4294967296,2048,2097152,/mnt,/dev/vdb,m1.small
3/2/13 8:31,server-6204,5,copy,25.9,MB/s,4294967296,2048,2097152,/mnt,/dev/vdb,m1.small
3/2/13 8:36,server-6204,1,copy,26.3,MB/s,4294967296,1024,4194304,/mnt,/dev/vdb,m1.small
3/2/13 8:42,server-6204,2,copy,25.4,MB/s,4294967296,1024,4194304,/mnt,/dev/vdb,m1.small
3/2/13 8:48,server-6204,3,copy,25.2,MB/s,4294967296,1024,4194304,/mnt,/dev/vdb,m1.small
3/2/13 8:53,server-6204,4,copy,25,MB/s,4294967296,1024,4194304,/mnt,/dev/vdb,m1.small
3/2/13 8:59,server-6204,5,copy,26,MB/s,4294967296,1024,4194304,/mnt,/dev/vdb,m1.small
3/2/13 9:04,server-6204,1,copy,25,MB/s,4294967296,512,8388608,/mnt,/dev/vdb,m1.small
3/2/13 9:10,server-6204,2,copy,24.3,MB/s,4294967296,512,8388608,/mnt,/dev/vdb,m1.small
3/2/13 9:16,server-6204,3,copy,24.8,MB/s,4294967296,512,8388608,/mnt,/dev/vdb,m1.small
3/2/13 9:21,server-6204,4,copy,25.8,MB/s,4294967296,512,8388608,/mnt,/dev/vdb,m1.small
3/2/13 9:27,server-6204,5,copy,24.8,MB/s,4294967296,512,8388608,/mnt,/dev/vdb,m1.small
3/2/13 9:33,server-6204,1,copy,25.1,MB/s,4294967296,256,16777216,/mnt,/dev/vdb,m1.small
3/2/13 9:38,server-6204,2,copy,24.7,MB/s,4294967296,256,16777216,/mnt,/dev/vdb,m1.small
3/2/13 9:44,server-6204,3,copy,25.8,MB/s,4294967296,256,16777216,/mnt,/dev/vdb,m1.small
3/2/13 9:50,server-6204,4,copy,24.8,MB/s,4294967296,256,16777216,/mnt,/dev/vdb,m1.small
3/2/13 9:55,server-6204,5,copy,24.8,MB/s,4294967296,256,16777216,/mnt,/dev/vdb,m1.small
3/2/13 7:43,server-6204,1,read,85.7,MB/s,4294967296,4096,1048576,/mnt,/dev/vdb,m1.small
3/2/13 7:49,server-6204,2,read,84.2,MB/s,4294967296,4096,1048576,/mnt,/dev/vdb,m1.small
3/2/13 7:55,server-6204,3,read,82.6,MB/s,4294967296,4096,1048576,/mnt,/dev/vdb,m1.small
3/2/13 8:00,server-6204,4,read,82.2,MB/s,4294967296,4096,1048576,/mnt,/dev/vdb,m1.small
3/2/13 8:06,server-6204,5,read,84.5,MB/s,4294967296,4096,1048576,/mnt,/dev/vdb,m1.small
3/2/13 8:11,server-6204,1,read,86.4,MB/s,4294967296,2048,2097152,/mnt,/dev/vdb,m1.small
3/2/13 8:17,server-6204,2,read,84.5,MB/s,4294967296,2048,2097152,/mnt,/dev/vdb,m1.small
3/2/13 8:22,server-6204,3,read,84,MB/s,4294967296,2048,2097152,/mnt,/dev/vdb,m1.small
3/2/13 8:28,server-6204,4,read,86.4,MB/s,4294967296,2048,2097152,/mnt,/dev/vdb,m1.small
3/2/13 8:34,server-6204,5,read,87,MB/s,4294967296,2048,2097152,/mnt,/dev/vdb,m1.small
3/2/13 8:39,server-6204,1,read,83.1,MB/s,4294967296,1024,4194304,/mnt,/dev/vdb,m1.small
3/2/13 8:45,server-6204,2,read,86,MB/s,4294967296,1024,4194304,/mnt,/dev/vdb,m1.small
3/2/13 8:50,server-6204,3,read,82.8,MB/s,4294967296,1024,4194304,/mnt,/dev/vdb,m1.small
3/2/13 8:56,server-6204,4,read,87.2,MB/s,4294967296,1024,4194304,/mnt,/dev/vdb,m1.small
3/2/13 9:02,server-6204,5,read,83.3,MB/s,4294967296,1024,4194304,/mnt,/dev/vdb,m1.small
3/2/13 9:07,server-6204,1,read,84.5,MB/s,4294967296,512,8388608,/mnt,/dev/vdb,m1.small
3/2/13 9:13,server-6204,2,read,86,MB/s,4294967296,512,8388608,/mnt,/dev/vdb,m1.small
3/2/13 9:19,server-6204,3,read,88.7,MB/s,4294967296,512,8388608,/mnt,/dev/vdb,m1.small
3/2/13 9:24,server-6204,4,read,86,MB/s,4294967296,512,8388608,/mnt,/dev/vdb,m1.small
3/2/13 9:30,server-6204,5,read,87.8,MB/s,4294967296,512,8388608,/mnt,/dev/vdb,m1.small
3/2/13 9:36,server-6204,1,read,81.2,MB/s,4294967296,256,16777216,/mnt,/dev/vdb,m1.small
3/2/13 9:41,server-6204,2,read,88.9,MB/s,4294967296,256,16777216,/mnt,/dev/vdb,m1.small
3/2/13 9:47,server-6204,3,read,81.6,MB/s,4294967296,256,16777216,/mnt,/dev/vdb,m1.small
3/2/13 9:53,server-6204,4,read,84.2,MB/s,4294967296,256,16777216,/mnt,/dev/vdb,m1.small
3/2/13 9:58,server-6204,5,read,84.5,MB/s,4294967296,256,16777216,/mnt,/dev/vdb,m1.small
3/2/13 7:39,server-6204,1,write,36.2,MB/s,4294967296,4096,1048576,/mnt,/dev/vdb,m1.small
3/2/13 7:44,server-6204,2,write,37.7,MB/s,4294967296,4096,1048576,/mnt,/dev/vdb,m1.small
3/2/13 7:50,server-6204,3,write,36,MB/s,4294967296,4096,1048576,/mnt,/dev/vdb,m1.small
3/2/13 7:55,server-6204,4,write,37.4,MB/s,4294967296,4096,1048576,/mnt,/dev/vdb,m1.small
3/2/13 8:01,server-6204,5,write,37.8,MB/s,4294967296,4096,1048576,/mnt,/dev/vdb,m1.small
3/2/13 8:07,server-6204,1,write,36.5,MB/s,4294967296,2048,2097152,/mnt,/dev/vdb,m1.small
3/2/13 8:12,server-6204,2,write,36.8,MB/s,4294967296,2048,2097152,/mnt,/dev/vdb,m1.small
3/2/13 8:18,server-6204,3,write,36,MB/s,4294967296,2048,2097152,/mnt,/dev/vdb,m1.small
3/2/13 8:23,server-6204,4,write,37.8,MB/s,4294967296,2048,2097152,/mnt,/dev/vdb,m1.small
3/2/13 8:29,server-6204,5,write,35.9,MB/s,4294967296,2048,2097152,/mnt,/dev/vdb,m1.small
3/2/13 8:34,server-6204,1,write,36.5,MB/s,4294967296,1024,4194304,/mnt,/dev/vdb,m1.small
3/2/13 8:40,server-6204,2,write,36.1,MB/s,4294967296,1024,4194304,/mnt,/dev/vdb,m1.small
3/2/13 8:46,server-6204,3,write,38.1,MB/s,4294967296,1024,4194304,/mnt,/dev/vdb,m1.small
3/2/13 8:51,server-6204,4,write,37.3,MB/s,4294967296,1024,4194304,/mnt,/dev/vdb,m1.small
3/2/13 8:57,server-6204,5,write,35.9,MB/s,4294967296,1024,4194304,/mnt,/dev/vdb,m1.small
3/2/13 9:02,server-6204,1,write,36.8,MB/s,4294967296,512,8388608,/mnt,/dev/vdb,m1.small
3/2/13 9:08,server-6204,2,write,37.9,MB/s,4294967296,512,8388608,/mnt,/dev/vdb,m1.small
3/2/13 9:14,server-6204,3,write,37.4,MB/s,4294967296,512,8388608,/mnt,/dev/vdb,m1.small
3/2/13 9:20,server-6204,4,write,36.7,MB/s,4294967296,512,8388608,/mnt,/dev/vdb,m1.small
3/2/13 9:25,server-6204,5,write,36.5,MB/s,4294967296,512,8388608,/mnt,/dev/vdb,m1.small
3/2/13 9:31,server-6204,1,write,37.2,MB/s,4294967296,256,16777216,/mnt,/dev/vdb,m1.small
3/2/13 9:36,server-6204,2,write,37.1,MB/s,4294967296,256,16777216,/mnt,/dev/vdb,m1.small
3/2/13 9:42,server-6204,3,write,36.1,MB/s,4294967296,256,16777216,/mnt,/dev/vdb,m1.small
3/2/13 9:48,server-6204,4,write,37.9,MB/s,4294967296,256,16777216,/mnt,/dev/vdb,m1.small
3/2/13 9:53,server-6204,5,write,37.9,MB/s,4294967296,256,16777216,/mnt,/dev/vdb,m1.small
3/4/13 20:00,server-6204,1,copy,39.1,MB/s,4294967296,4096,1048576,/mnt2,/dev/vdc,m1.small
3/4/13 20:03,server-6204,2,copy,41.3,MB/s,4294967296,4096,1048576,/mnt2,/dev/vdc,m1.small
3/4/13 20:07,server-6204,3,copy,40.8,MB/s,4294967296,4096,1048576,/mnt2,/dev/vdc,m1.small
3/4/13 20:11,server-6204,4,copy,40.5,MB/s,4294967296,4096,1048576,/mnt2,/dev/vdc,m1.small
3/4/13 20:14,server-6204,5,copy,40.2,MB/s,4294967296,4096,1048576,/mnt2,/dev/vdc,m1.small
3/4/13 20:18,server-6204,1,copy,40.3,MB/s,4294967296,2048,2097152,/mnt2,/dev/vdc,m1.small
3/4/13 20:22,server-6204,2,copy,40.9,MB/s,4294967296,2048,2097152,/mnt2,/dev/vdc,m1.small
3/4/13 20:25,server-6204,3,copy,39.4,MB/s,4294967296,2048,2097152,/mnt2,/dev/vdc,m1.small
3/4/13 20:29,server-6204,4,copy,40.2,MB/s,4294967296,2048,2097152,/mnt2,/dev/vdc,m1.small
3/4/13 20:33,server-6204,5,copy,39.2,MB/s,4294967296,2048,2097152,/mnt2,/dev/vdc,m1.small
3/4/13 20:36,server-6204,1,copy,39.4,MB/s,4294967296,1024,4194304,/mnt2,/dev/vdc,m1.small
3/4/13 20:40,server-6204,2,copy,39.7,MB/s,4294967296,1024,4194304,/mnt2,/dev/vdc,m1.small
3/4/13 20:44,server-6204,3,copy,38.4,MB/s,4294967296,1024,4194304,/mnt2,/dev/vdc,m1.small
3/4/13 20:47,server-6204,4,copy,34.7,MB/s,4294967296,1024,4194304,/mnt2,/dev/vdc,m1.small
3/4/13 20:51,server-6204,5,copy,40.2,MB/s,4294967296,1024,4194304,/mnt2,/dev/vdc,m1.small
3/4/13 20:55,server-6204,1,copy,39.5,MB/s,4294967296,512,8388608,/mnt2,/dev/vdc,m1.small
3/4/13 20:59,server-6204,2,copy,38.9,MB/s,4294967296,512,8388608,/mnt2,/dev/vdc,m1.small
3/4/13 21:02,server-6204,3,copy,38.9,MB/s,4294967296,512,8388608,/mnt2,/dev/vdc,m1.small
3/4/13 21:06,server-6204,4,copy,39.9,MB/s,4294967296,512,8388608,/mnt2,/dev/vdc,m1.small
3/4/13 21:10,server-6204,5,copy,39.7,MB/s,4294967296,512,8388608,/mnt2,/dev/vdc,m1.small
3/4/13 21:13,server-6204,1,copy,39.9,MB/s,4294967296,256,16777216,/mnt2,/dev/vdc,m1.small
3/4/13 21:17,server-6204,2,copy,39,MB/s,4294967296,256,16777216,/mnt2,/dev/vdc,m1.small
3/4/13 21:21,server-6204,3,copy,40.2,MB/s,4294967296,256,16777216,/mnt2,/dev/vdc,m1.small
3/4/13 21:24,server-6204,4,copy,39.6,MB/s,4294967296,256,16777216,/mnt2,/dev/vdc,m1.small
3/4/13 21:28,server-6204,5,copy,38.5,MB/s,4294967296,256,16777216,/mnt2,/dev/vdc,m1.small
3/4/13 20:02,server-6204,1,read,1126.4,GB/s,4294967296,4096,1048576,/mnt2,/dev/vdc,m1.small
3/4/13 20:05,server-6204,2,read,1228.8,GB/s,4294967296,4096,1048576,/mnt2,/dev/vdc,m1.small
3/4/13 20:09,server-6204,3,read,613,MB/s,4294967296,4096,1048576,/mnt2,/dev/vdc,m1.small
3/4/13 20:12,server-6204,4,read,638,MB/s,4294967296,4096,1048576,/mnt2,/dev/vdc,m1.small
3/4/13 20:16,server-6204,5,read,557,MB/s,4294967296,4096,1048576,/mnt2,/dev/vdc,m1.small
3/4/13 20:20,server-6204,1,read,1126.4,GB/s,4294967296,2048,2097152,/mnt2,/dev/vdc,m1.small
3/4/13 20:23,server-6204,2,read,1331.2,GB/s,4294967296,2048,2097152,/mnt2,/dev/vdc,m1.small
3/4/13 20:27,server-6204,3,read,1126.4,GB/s,4294967296,2048,2097152,/mnt2,/dev/vdc,m1.small
3/4/13 20:31,server-6204,4,read,1228.8,GB/s,4294967296,2048,2097152,/mnt2,/dev/vdc,m1.small
3/4/13 20:34,server-6204,5,read,1126.4,GB/s,4294967296,2048,2097152,/mnt2,/dev/vdc,m1.small
3/4/13 20:38,server-6204,1,read,1126.4,GB/s,4294967296,1024,4194304,/mnt2,/dev/vdc,m1.small
3/4/13 20:42,server-6204,2,read,1228.8,GB/s,4294967296,1024,4194304,/mnt2,/dev/vdc,m1.small
3/4/13 20:46,server-6204,3,read,1126.4,GB/s,4294967296,1024,4194304,/mnt2,/dev/vdc,m1.small
3/4/13 20:49,server-6204,4,read,727,MB/s,4294967296,1024,4194304,/mnt2,/dev/vdc,m1.small
3/4/13 20:53,server-6204,5,read,1126.4,GB/s,4294967296,1024,4194304,/mnt2,/dev/vdc,m1.small
3/4/13 20:57,server-6204,1,read,1228.8,GB/s,4294967296,512,8388608,/mnt2,/dev/vdc,m1.small
3/4/13 21:00,server-6204,2,read,1228.8,GB/s,4294967296,512,8388608,/mnt2,/dev/vdc,m1.small
3/4/13 21:04,server-6204,3,read,1126.4,GB/s,4294967296,512,8388608,/mnt2,/dev/vdc,m1.small
3/4/13 21:08,server-6204,4,read,1126.4,GB/s,4294967296,512,8388608,/mnt2,/dev/vdc,m1.small
3/4/13 21:11,server-6204,5,read,1126.4,GB/s,4294967296,512,8388608,/mnt2,/dev/vdc,m1.small
3/4/13 21:15,server-6204,1,read,695,MB/s,4294967296,256,16777216,/mnt2,/dev/vdc,m1.small
3/4/13 21:19,server-6204,2,read,1126.4,GB/s,4294967296,256,16777216,/mnt2,/dev/vdc,m1.small
3/4/13 21:22,server-6204,3,read,1126.4,GB/s,4294967296,256,16777216,/mnt2,/dev/vdc,m1.small
3/4/13 21:26,server-6204,4,read,1126.4,GB/s,4294967296,256,16777216,/mnt2,/dev/vdc,m1.small
3/4/13 21:30,server-6204,5,read,936,MB/s,4294967296,256,16777216,/mnt2,/dev/vdc,m1.small
3/4/13 19:58,server-6204,1,write,42.3,MB/s,4294967296,4096,1048576,/mnt2,/dev/vdc,m1.small
3/4/13 20:02,server-6204,2,write,41.9,MB/s,4294967296,4096,1048576,/mnt2,/dev/vdc,m1.small
3/4/13 20:05,server-6204,3,write,42.3,MB/s,4294967296,4096,1048576,/mnt2,/dev/vdc,m1.small
3/4/13 20:09,server-6204,4,write,42.3,MB/s,4294967296,4096,1048576,/mnt2,/dev/vdc,m1.small
3/4/13 20:13,server-6204,5,write,42,MB/s,4294967296,4096,1048576,/mnt2,/dev/vdc,m1.small
3/4/13 20:16,server-6204,1,write,42,MB/s,4294967296,2048,2097152,/mnt2,/dev/vdc,m1.small
3/4/13 20:20,server-6204,2,write,41.9,MB/s,4294967296,2048,2097152,/mnt2,/dev/vdc,m1.small
3/4/13 20:23,server-6204,3,write,42.1,MB/s,4294967296,2048,2097152,/mnt2,/dev/vdc,m1.small
3/4/13 20:27,server-6204,4,write,41.2,MB/s,4294967296,2048,2097152,/mnt2,/dev/vdc,m1.small
3/4/13 20:31,server-6204,5,write,41.9,MB/s,4294967296,2048,2097152,/mnt2,/dev/vdc,m1.small
3/4/13 20:35,server-6204,1,write,42.1,MB/s,4294967296,1024,4194304,/mnt2,/dev/vdc,m1.small
3/4/13 20:38,server-6204,2,write,41.6,MB/s,4294967296,1024,4194304,/mnt2,/dev/vdc,m1.small
3/4/13 20:42,server-6204,3,write,41.8,MB/s,4294967296,1024,4194304,/mnt2,/dev/vdc,m1.small
3/4/13 20:46,server-6204,4,write,42,MB/s,4294967296,1024,4194304,/mnt2,/dev/vdc,m1.small
3/4/13 20:50,server-6204,5,write,41.9,MB/s,4294967296,1024,4194304,/mnt2,/dev/vdc,m1.small
3/4/13 20:53,server-6204,1,write,42,MB/s,4294967296,512,8388608,/mnt2,/dev/vdc,m1.small
3/4/13 20:57,server-6204,2,write,42,MB/s,4294967296,512,8388608,/mnt2,/dev/vdc,m1.small
3/4/13 21:01,server-6204,3,write,42,MB/s,4294967296,512,8388608,/mnt2,/dev/vdc,m1.small
3/4/13 21:04,server-6204,4,write,41.7,MB/s,4294967296,512,8388608,/mnt2,/dev/vdc,m1.small
3/4/13 21:08,server-6204,5,write,42,MB/s,4294967296,512,8388608,/mnt2,/dev/vdc,m1.small
3/4/13 21:12,server-6204,1,write,41.5,MB/s,4294967296,256,16777216,/mnt2,/dev/vdc,m1.small
3/4/13 21:15,server-6204,2,write,41.9,MB/s,4294967296,256,16777216,/mnt2,/dev/vdc,m1.small
3/4/13 21:19,server-6204,3,write,39.6,MB/s,4294967296,256,16777216,/mnt2,/dev/vdc,m1.small
3/4/13 21:23,server-6204,4,write,42.3,MB/s,4294967296,256,16777216,/mnt2,/dev/vdc,m1.small
3/4/13 21:26,server-6204,5,write,42.2,MB/s,4294967296,256,16777216,/mnt2,/dev/vdc,m1.small
3/5/13 19:12,server-6401,1,read,78.1,MB/s,34359738368,8192,4194304,/home/ubuntu,/dev/vda,m1.special1
3/5/13 19:33,server-6401,2,read,92.9,MB/s,34359738368,8192,4194304,/home/ubuntu,/dev/vda,m1.special1
3/5/13 19:53,server-6401,3,read,94.9,MB/s,34359738368,8192,4194304,/home/ubuntu,/dev/vda,m1.special1
3/5/13 20:12,server-6401,4,read,93,MB/s,34359738368,8192,4194304,/home/ubuntu,/dev/vda,m1.special1
3/5/13 20:32,server-6401,5,read,92.5,MB/s,34359738368,8192,4194304,/home/ubuntu,/dev/vda,m1.special1
3/5/13 18:59,server-6401,1,write,43.2,MB/s,34359738368,8192,4194304,/home/ubuntu,/dev/vda,m1.special1
3/5/13 19:19,server-6401,2,write,41.7,MB/s,34359738368,8192,4194304,/home/ubuntu,/dev/vda,m1.special1
3/5/13 19:39,server-6401,3,write,42.8,MB/s,34359738368,8192,4194304,/home/ubuntu,/dev/vda,m1.special1
3/5/13 19:59,server-6401,4,write,42.5,MB/s,34359738368,8192,4194304,/home/ubuntu,/dev/vda,m1.special1
3/5/13 20:18,server-6401,5,write,42.5,MB/s,34359738368,8192,4194304,/home/ubuntu,/dev/vda,m1.special1
3/5/13 20:56,server-6401,1,read,69.7,MB/s,34359738368,8192,4194304,/mnt,/dev/vdb,m1.special1
3/5/13 21:23,server-6401,2,read,75.8,MB/s,34359738368,8192,4194304,/mnt,/dev/vdb,m1.special1
3/5/13 21:47,server-6401,3,read,71.1,MB/s,34359738368,8192,4194304,/mnt,/dev/vdb,m1.special1
3/5/13 22:11,server-6401,4,read,74.7,MB/s,34359738368,8192,4194304,/mnt,/dev/vdb,m1.special1
3/5/13 22:36,server-6401,5,read,74.5,MB/s,34359738368,8192,4194304,/mnt,/dev/vdb,m1.special1
3/5/13 20:38,server-6401,1,write,31.2,MB/s,34359738368,8192,4194304,/mnt,/dev/vdb,m1.special1
3/5/13 21:05,server-6401,2,write,31.6,MB/s,34359738368,8192,4194304,/mnt,/dev/vdb,m1.special1
3/5/13 21:30,server-6401,3,write,34.8,MB/s,34359738368,8192,4194304,/mnt,/dev/vdb,m1.special1
3/5/13 21:55,server-6401,4,write,35.6,MB/s,34359738368,8192,4194304,/mnt,/dev/vdb,m1.special1
3/5/13 22:19,server-6401,5,write,32.5,MB/s,34359738368,8192,4194304,/mnt,/dev/vdb,m1.special1